Regional Weather Roundup
Issued by NWS Sioux Falls, SD

Home | Current Version | Previous Version | Text Only | Print | Product List | Glossary On
Versions: 1 2 3 4 5 6 7 8 9 10 11 12 13 14 15 16 17 18 19 20 21 22 23 24 25 26 27 28 29 30 31 32 33 34 35 36 37 38 39 40 41 42 43 44 45 46 47 48 49 50
000
ASUS43 KFSD 070010
RWRFSD

WEATHER ROUNDUP FOR SE SOUTH DAKOTA/SW MINNESOTA/NW IOWA
NATIONAL WEATHER SERVICE SIOUX FALLS SD
700 PM CDT WED MAY 06 2015

NOTE: "FAIR" INDICATES FEW OR NO CLOUDS BELOW 12,000 FEET WITH NO
SIGNIFICANT WEATHER AND OR OBSTRUCTIONS TO VISIBILITY.


SDZ038>040-050-052>070-070100-
SOUTHEAST SOUTH DAKOTA

CITY           SKY/WX    TMP DP  RH WIND       PRES   REMARKS
BROOKINGS      PTSUNNY   66  61  82 S28G36    29.72S
CHAMBERLAIN    LGT RAIN  61  60  97 W3        29.61S
6HR MIN TEMP:  60; 6HR MAX TEMP:  66; 6HR PCP:  0.65;

HURON          CLOUDY    68  63  83 S10       29.62S THUNDER
6HR MIN TEMP:  63; 6HR MAX TEMP:  72; 6HR PCP:  0.13;

MADISON        CLOUDY    64  64 100 S25G32    29.71R
MITCHELL       PTSUNNY   71  60  68 S23G32    29.64S
6HR MIN TEMP:  64; 6HR MAX TEMP:  74; 6HR PCP:  0.01;

SIOUX FALLS    CLOUDY    67  60  78 S16G30    29.72F
6HR MIN TEMP:  63; 6HR MAX TEMP:  72; 6HR PCP:  0.05;

WINNER         LGT RAIN  64  58  80 SE3       29.60S
YANKTON        MOSUNNY   68  61  77 SE20G30   29.67F
$$

MNZ071-072-080-081-089-090-097-098-070100-
SOUTHWEST MINNESOTA

CITY           SKY/WX    TMP DP  RH WIND       PRES   REMARKS
FAIRMONT       PTSUNNY   73  39  29 S18       29.81S
JACKSON        PTSUNNY   70  59  68 S13       29.82F
LUVERNE        CLOUDY    68  61  77 S14G25    29.76S
MARSHALL       MOSUNNY   70  55  60 S24G31    29.75R
6HR MIN TEMP:  64; 6HR MAX TEMP:  75; 6HR PCP:  0.13;

MONTEVIDEO     PTSUNNY   72  61  68 SW20G29   29.73S
PIPESTONE      PTSUNNY   66  59  77 S24       29.75S
REDWOOD FALLS  PTSUNNY   72  58  61 S23G31    29.77R
TRACY          PTSUNNY   69  58  69 S15G26    29.77S
WORTHINGTON    CLOUDY    66  59  77 S15G22    29.79F
$$

IAZ001>003-012>014-020>022-031-032-NEZ013-014-SDZ071-070100-
NORTHWEST IOWA

CITY           SKY/WX    TMP DP  RH WIND       PRES   REMARKS
CHEROKEE       CLOUDY    69  60  75 S16G22    29.78F
DENISON        CLOUDY    70  63  78 S22       29.78F
ESTHERVILLE    CLOUDY    69  63  81 S14       29.81F
LE MARS        CLOUDY    70  63  78 SE17G26   29.75F
ORANGE CITY    PTSUNNY   66  61  82 S13G20    29.76F
SHELDON        PTSUNNY   68 N/A N/A S18G26    29.76F
SIOUX CITY     MOSUNNY   70  60  70 SE22G31   29.73F
6HR MIN TEMP:  65; 6HR MAX TEMP:  74; 6HR PCP:  0.04;

SPENCER        CLOUDY    70  63  78 S13       29.80F
6HR MIN TEMP:  66; 6HR MAX TEMP:  75; 6HR PCP:  0.04;

STORM LAKE     CLOUDY    68  59  73 S17       29.82S
$$

ABBREVIATIONS USED IN REMARKS
   TC - TEMPERATURE IN CELSIUS
  WCI - WIND CHILL INDEX
   HX - HEAT INDEX
  VSB - VISIBILITY



USA.gov is the U.S. government's official web portal to all federal, state and local government web resources and services.